Location: ??
(35.5253°N, 139.7078°E)
Time: 20:57:29
(UTC+00:00)

STARLINK-36070 - Pass Details

Date: 11 December 2025
Orbit: 482 x 484 km, 43.0° (Epoch: 13 April)

Event Time Altitude Azimuth Distance (km) Brightness Sun altitude
Exits shadow 20:04:56 27° 221° (SW) 990 3.7 -18.9°
Maximum altitude 20:06:53 61° 149° (SSE) 567 2.8 -18.6°
Drops below altitude 10° 20:10:42 10° 69° (ENE) 1,694 5.9 -17.8°
Sets 20:12:54 0° 65° (ENE) 2,576 6.8 -17.4°
